Time,TemperatureF,DewpointF,PressureIn,WindDirection,WindDirectionDegrees,WindSpeedMPH,WindSpeedGustMPH,Humidity,HourlyPrecipIn,Conditions,Clouds,dailyrainin,SoftwareType,DateUTC
2013-04-13 00:02:00,60.0,36.0,29.79,East,82,0.0,0.0,40,0.00,,,0.00,,2013-04-13 05:02:00,
2013-04-13 00:12:00,60.0,36.0,29.79,East,82,0.0,0.0,40,0.00,,,0.00,,2013-04-13 05:12:00,
2013-04-13 00:22:00,60.0,34.0,29.80,East,82,0.0,3.0,38,0.00,,,0.00,,2013-04-13 05:22:00,
2013-04-13 00:32:00,60.0,34.0,29.80,East,82,0.0,3.0,38,0.00,,,0.00,,2013-04-13 05:32:00,
2013-04-13 00:43:00,60.0,34.0,29.80,East,82,0.0,3.0,38,0.00,,,0.00,,2013-04-13 05:43:00,
2013-04-13 00:52:00,59.0,35.0,29.80,ENE,62,0.0,0.0,40,0.00,,,0.00,,2013-04-13 05:52:00,
2013-04-13 01:02:00,59.0,35.0,29.80,ENE,62,0.0,0.0,40,0.00,,,0.00,,2013-04-13 06:02:00,
2013-04-13 01:12:00,59.0,35.0,29.80,ENE,62,0.0,0.0,40,0.00,,,0.00,,2013-04-13 06:12:00,
2013-04-13 01:23:00,59.0,36.0,29.80,ENE,58,0.0,1.0,42,0.00,,,0.00,,2013-04-13 06:23:00,
2013-04-13 01:34:00,59.0,36.0,29.80,ENE,58,0.0,1.0,42,0.00,,,0.00,,2013-04-13 06:34:00,
2013-04-13 01:49:00,59.0,36.0,29.80,ENE,58,0.0,1.0,42,0.00,,,0.00,,2013-04-13 06:49:00,
2013-04-13 01:55:00,58.0,36.0,29.81,NNE,13,0.0,0.0,43,0.00,,,0.00,,2013-04-13 06:55:00,
2013-04-13 02:04:00,58.0,36.0,29.81,NNE,13,0.0,0.0,43,0.00,,,0.00,,2013-04-13 07:04:00,
2013-04-13 02:14:00,58.0,36.0,29.81,NNE,13,0.0,0.0,43,0.00,,,0.00,,2013-04-13 07:14:00,
2013-04-13 02:23:00,56.0,36.0,29.79,SSE,164,0.0,0.0,47,0.00,,,0.00,,2013-04-13 07:23:00,
2013-04-13 02:34:00,56.0,36.0,29.79,SSE,164,0.0,0.0,47,0.00,,,0.00,,2013-04-13 07:34:00,
2013-04-13 02:45:00,56.0,36.0,29.79,SSE,164,0.0,0.0,47,0.00,,,0.00,,2013-04-13 07:45:00,
2013-04-13 02:55:00,55.0,35.0,29.80,South,186,0.0,0.0,46,0.00,,,0.00,,2013-04-13 07:55:00,
2013-04-13 03:15:00,55.0,35.0,29.80,South,186,0.0,0.0,46,0.00,,,0.00,,2013-04-13 08:15:00,
2013-04-13 03:25:00,55.0,36.0,29.79,SSE,148,0.0,0.0,49,0.00,,,0.00,,2013-04-13 08:25:00,
2013-04-13 03:34:00,55.0,36.0,29.79,SSE,148,0.0,0.0,49,0.00,,,0.00,,2013-04-13 08:34:00,
2013-04-13 03:46:00,55.0,36.0,29.79,SSE,148,0.0,0.0,49,0.00,,,0.00,,2013-04-13 08:46:00,
2013-04-13 03:54:00,54.0,36.0,29.77,SSW,213,0.0,0.0,50,0.00,,,0.00,,2013-04-13 08:54:00,
2013-04-13 04:04:00,54.0,36.0,29.77,SSW,213,0.0,0.0,50,0.00,,,0.00,,2013-04-13 09:04:00,
2013-04-13 04:14:00,54.0,36.0,29.77,SSW,213,0.0,0.0,50,0.00,,,0.00,,2013-04-13 09:14:00,
2013-04-13 04:24:00,53.0,37.0,29.75,SSW,213,0.0,0.0,54,0.00,,,0.00,,2013-04-13 09:24:00,
2013-04-13 04:35:00,53.0,37.0,29.75,SSW,213,0.0,0.0,54,0.00,,,0.00,,2013-04-13 09:35:00,
2013-04-13 04:52:00,53.0,37.0,29.75,SSW,213,0.0,0.0,54,0.00,,,0.00,,2013-04-13 09:52:00,
2013-04-13 05:04:00,52.0,36.0,29.76,SSW,213,0.0,0.0,54,0.00,,,0.00,,2013-04-13 10:04:00,
2013-04-13 05:15:00,52.0,36.0,29.76,SSW,213,0.0,0.0,55,0.00,,,0.00,,2013-04-13 10:15:00,
2013-04-13 05:24:00,52.0,36.0,29.76,SSW,213,0.0,0.0,55,0.00,,,0.00,,2013-04-13 10:24:00,
2013-04-13 05:35:00,52.0,36.0,29.76,SSW,213,0.0,0.0,55,0.00,,,0.00,,2013-04-13 10:35:00,
2013-04-13 05:55:00,51.0,38.0,29.77,SSE,148,0.0,5.0,60,0.00,,,0.00,,2013-04-13 10:55:00,
2013-04-13 06:05:00,51.0,38.0,29.77,SSE,148,0.0,5.0,60,0.00,,,0.00,,2013-04-13 11:05:00,
2013-04-13 06:13:00,51.0,38.0,29.77,SSE,148,0.0,5.0,60,0.00,,,0.00,,2013-04-13 11:13:00,
2013-04-13 06:23:00,52.0,39.0,29.75,South,181,0.0,0.0,60,0.00,,,0.00,,2013-04-13 11:23:00,
2013-04-13 06:33:00,52.0,39.0,29.75,South,181,0.0,0.0,60,0.00,,,0.00,,2013-04-13 11:33:00,
2013-04-13 06:45:00,52.0,39.0,29.75,South,181,0.0,0.0,60,0.00,,,0.00,,2013-04-13 11:45:00,
2013-04-13 06:54:00,51.0,38.0,29.74,South,181,0.0,0.0,62,0.00,,,0.00,,2013-04-13 11:54:00,
2013-04-13 07:07:00,51.0,38.0,29.74,South,181,0.0,0.0,62,0.00,,,0.00,,2013-04-13 12:07:00,
2013-04-13 07:15:00,51.0,38.0,29.74,South,181,0.0,0.0,62,0.00,,,0.00,,2013-04-13 12:15:00,
2013-04-13 07:24:00,50.0,39.0,29.75,South,181,0.0,0.0,65,0.00,,,0.00,,2013-04-13 12:24:00,
2013-04-13 07:35:00,50.0,39.0,29.75,South,181,0.0,0.0,65,0.00,,,0.00,,2013-04-13 12:35:00,
2013-04-13 07:48:00,50.0,39.0,29.75,South,181,0.0,0.0,65,0.00,,,0.00,,2013-04-13 12:48:00,
2013-04-13 07:55:00,49.0,39.0,29.75,South,182,0.0,0.0,68,0.00,,,0.00,,2013-04-13 12:55:00,
2013-04-13 08:05:00,49.0,39.0,29.75,South,182,0.0,0.0,68,0.00,,,0.00,,2013-04-13 13:05:00,
2013-04-13 08:15:00,49.0,39.0,29.75,South,182,0.0,0.0,68,0.00,,,0.00,,2013-04-13 13:15:00,
2013-04-13 08:25:00,51.0,40.0,29.77,WNW,284,0.0,0.0,65,0.00,,,0.00,,2013-04-13 13:25:00,
2013-04-13 08:34:00,51.0,40.0,29.77,WNW,284,0.0,0.0,65,0.00,,,0.00,,2013-04-13 13:34:00,
2013-04-13 08:49:00,51.0,40.0,29.77,WNW,284,0.0,0.0,65,0.00,,,0.00,,2013-04-13 13:49:00,
2013-04-13 08:55:00,52.0,41.0,29.78,WNW,284,0.0,0.0,66,0.00,,,0.00,,2013-04-13 13:55:00,
2013-04-13 09:04:00,52.0,41.0,29.78,WNW,284,0.0,0.0,66,0.00,,,0.00,,2013-04-13 14:04:00,
2013-04-13 09:14:00,52.0,41.0,29.78,WNW,284,0.0,0.0,66,0.00,,,0.00,,2013-04-13 14:14:00,
2013-04-13 09:23:00,53.0,42.0,29.78,WNW,284,0.0,0.0,66,0.00,,,0.00,,2013-04-13 14:23:00,
2013-04-13 09:35:00,53.0,42.0,29.78,WNW,284,0.0,0.0,66,0.00,,,0.00,,2013-04-13 14:35:00,
2013-04-13 09:48:00,53.0,42.0,29.78,WNW,284,0.0,0.0,66,0.00,,,0.00,,2013-04-13 14:48:00,
2013-04-13 09:59:00,57.0,42.0,29.79,WNW,284,0.0,0.0,58,0.00,,,0.00,,2013-04-13 14:59:00,
2013-04-13 10:04:00,57.0,42.0,29.79,WNW,284,0.0,0.0,58,0.00,,,0.00,,2013-04-13 15:04:00,
2013-04-13 10:14:00,57.0,42.0,29.79,WNW,284,0.0,0.0,58,0.00,,,0.00,,2013-04-13 15:14:00,
2013-04-13 10:28:00,61.0,44.0,29.80,WSW,241,0.0,1.0,53,0.00,,,0.00,,2013-04-13 15:28:00,
2013-04-13 10:35:00,61.0,44.0,29.80,WSW,241,0.0,1.0,53,0.00,,,0.00,,2013-04-13 15:35:00,
2013-04-13 10:45:00,61.0,44.0,29.80,WSW,241,0.0,1.0,53,0.00,,,0.00,,2013-04-13 15:45:00,
2013-04-13 10:57:00,64.0,44.0,29.79,South,181,0.0,3.0,48,0.00,,,0.00,,2013-04-13 15:57:00,
2013-04-13 11:05:00,64.0,44.0,29.79,South,181,0.0,3.0,48,0.00,,,0.00,,2013-04-13 16:05:00,
2013-04-13 11:15:00,64.0,44.0,29.79,South,181,0.0,3.0,48,0.00,,,0.00,,2013-04-13 16:15:00,
2013-04-13 11:24:00,64.0,43.0,29.78,South,169,0.0,0.0,47,0.00,,,0.00,,2013-04-13 16:24:00,
2013-04-13 11:34:00,64.0,43.0,29.78,South,169,0.0,0.0,47,0.00,,,0.00,,2013-04-13 16:34:00,
2013-04-13 11:48:00,64.0,43.0,29.78,South,169,0.0,0.0,47,0.00,,,0.00,,2013-04-13 16:48:00,
2013-04-13 11:55:00,66.0,43.0,29.77,SSW,202,0.0,3.0,43,0.00,,,0.00,,2013-04-13 16:55:00,
2013-04-13 12:05:00,66.0,43.0,29.77,SSW,202,0.0,3.0,43,0.00,,,0.00,,2013-04-13 17:05:00,
2013-04-13 12:20:00,66.0,43.0,29.77,SSW,202,0.0,3.0,43,0.00,,,0.00,,2013-04-13 17:20:00,
2013-04-13 12:36:00,69.0,43.0,29.78,SW,226,0.0,5.0,39,0.00,,,0.00,,2013-04-13 17:36:00,
2013-04-13 12:45:00,69.0,43.0,29.78,SW,226,0.0,5.0,39,0.00,,,0.00,,2013-04-13 17:45:00,
2013-04-13 13:03:00,71.0,43.0,29.76,ESE,116,0.0,7.0,36,0.00,,,0.00,,2013-04-13 18:03:00,
2013-04-13 13:15:00,71.0,43.0,29.76,ESE,116,0.0,7.0,36,0.00,,,0.00,,2013-04-13 18:15:00,
2013-04-13 13:24:00,73.0,41.0,29.75,East,93,0.0,8.0,32,0.00,,,0.00,,2013-04-13 18:24:00,
2013-04-13 13:32:00,73.0,41.0,29.75,East,93,0.0,8.0,32,0.00,,,0.00,,2013-04-13 18:32:00,
2013-04-13 13:42:00,73.0,41.0,29.75,East,93,0.0,8.0,32,0.00,,,0.00,,2013-04-13 18:42:00,
2013-04-13 13:53:00,75.0,42.0,29.74,East,92,0.0,3.0,31,0.00,,,0.00,,2013-04-13 18:53:00,
2013-04-13 14:02:00,75.0,42.0,29.74,East,92,0.0,3.0,31,0.00,,,0.00,,2013-04-13 19:02:00,
2013-04-13 14:12:00,75.0,42.0,29.74,East,92,0.0,3.0,31,0.00,,,0.00,,2013-04-13 19:12:00,
2013-04-13 14:22:00,74.0,42.0,29.73,East,90,7.0,11.0,32,0.00,,,0.00,,2013-04-13 19:22:00,
2013-04-13 14:32:00,74.0,42.0,29.73,East,90,7.0,11.0,32,0.00,,,0.00,,2013-04-13 19:32:00,
2013-04-13 14:42:00,74.0,42.0,29.73,East,90,7.0,11.0,32,0.00,,,0.00,,2013-04-13 19:42:00,
2013-04-13 14:53:00,70.0,39.0,29.73,North,353,0.0,8.0,32,0.00,,,0.00,,2013-04-13 19:53:00,
2013-04-13 15:02:00,70.0,39.0,29.73,North,353,0.0,8.0,32,0.00,,,0.00,,2013-04-13 20:02:00,
2013-04-13 15:12:00,70.0,39.0,29.73,North,353,0.0,8.0,32,0.00,,,0.00,,2013-04-13 20:12:00,
2013-04-13 15:22:00,66.0,43.0,29.73,NNE,32,6.0,12.0,44,0.00,,,0.00,,2013-04-13 20:22:00,
2013-04-13 15:32:00,66.0,43.0,29.73,NNE,32,6.0,12.0,44,0.00,,,0.00,,2013-04-13 20:32:00,
2013-04-13 15:42:00,66.0,43.0,29.73,NNE,32,6.0,12.0,44,0.00,,,0.00,,2013-04-13 20:42:00,
2013-04-13 15:52:00,62.0,47.0,29.73,NW,325,2.0,12.0,57,0.00,,,0.00,,2013-04-13 20:52:00,
2013-04-13 16:02:00,62.0,47.0,29.73,NW,325,2.0,12.0,57,0.00,,,0.00,,2013-04-13 21:02:00,
2013-04-13 16:12:00,62.0,47.0,29.73,NW,325,2.0,12.0,57,0.00,,,0.00,,2013-04-13 21:12:00,
2013-04-13 16:22:00,59.0,46.0,29.77,NW,322,1.0,8.0,62,0.00,,,0.00,,2013-04-13 21:22:00,
2013-04-13 16:32:00,59.0,46.0,29.77,NW,322,1.0,8.0,62,0.00,,,0.00,,2013-04-13 21:32:00,
2013-04-13 16:43:00,59.0,46.0,29.77,NW,322,1.0,8.0,62,0.00,,,0.00,,2013-04-13 21:43:00,
2013-04-13 16:53:00,59.0,40.0,29.75,ESE,116,5.0,11.0,49,0.00,,,0.00,,2013-04-13 21:53:00,
2013-04-13 17:02:00,59.0,40.0,29.75,ESE,116,5.0,11.0,49,0.00,,,0.00,,2013-04-13 22:02:00,
2013-04-13 17:12:00,59.0,40.0,29.75,ESE,116,5.0,11.0,49,0.00,,,0.00,,2013-04-13 22:12:00,
2013-04-13 17:22:00,60.0,37.0,29.72,NE,51,1.0,13.0,42,0.00,,,0.00,,2013-04-13 22:22:00,
2013-04-13 17:33:00,60.0,37.0,29.72,NE,51,1.0,13.0,42,0.00,,,0.00,,2013-04-13 22:33:00,
2013-04-13 17:42:00,60.0,37.0,29.72,NE,51,1.0,13.0,42,0.00,,,0.00,,2013-04-13 22:42:00,
2013-04-13 17:53:00,59.0,40.0,29.74,South,171,3.0,12.0,50,0.00,,,0.00,,2013-04-13 22:53:00,
2013-04-13 18:02:00,59.0,40.0,29.74,South,171,3.0,12.0,50,0.00,,,0.00,,2013-04-13 23:02:00,
2013-04-13 18:12:00,59.0,39.0,29.74,SW,232,0.0,10.0,48,0.00,,,0.00,,2013-04-13 23:12:00,
2013-04-13 18:22:00,59.0,39.0,29.74,SW,232,0.0,10.0,48,0.00,,,0.00,,2013-04-13 23:22:00,
2013-04-13 18:32:00,59.0,39.0,29.74,SW,232,0.0,10.0,48,0.00,,,0.00,,2013-04-13 23:32:00,
2013-04-13 18:43:00,59.0,39.0,29.74,SW,232,0.0,10.0,48,0.00,,,0.00,,2013-04-13 23:43:00,
2013-04-13 18:53:00,61.0,40.0,29.76,WSW,251,0.0,10.0,46,0.00,,,0.00,,2013-04-13 23:53:00,
2013-04-13 19:02:00,61.0,40.0,29.76,WSW,251,0.0,10.0,46,0.00,,,0.00,,2013-04-14 00:02:00,
2013-04-13 19:12:00,61.0,40.0,29.76,WSW,251,0.0,10.0,46,0.00,,,0.00,,2013-04-14 00:12:00,
2013-04-13 19:22:00,61.0,40.0,29.74,SW,222,0.0,10.0,46,0.00,,,0.00,,2013-04-14 00:22:00,
2013-04-13 19:32:00,61.0,40.0,29.74,SW,222,0.0,10.0,46,0.00,,,0.00,,2013-04-14 00:32:00,
2013-04-13 19:42:00,61.0,40.0,29.74,SW,222,0.0,10.0,46,0.00,,,0.00,,2013-04-14 00:42:00,
2013-04-13 19:52:00,61.0,40.0,29.74,SW,222,0.0,10.0,46,0.00,,,0.00,,2013-04-14 00:52:00,
2013-04-13 20:02:00,61.0,40.0,29.73,SSW,200,3.0,16.0,45,0.00,,,0.00,,2013-04-14 01:02:00,
2013-04-13 20:12:00,61.0,40.0,29.73,SSW,200,3.0,16.0,45,0.00,,,0.00,,2013-04-14 01:12:00,
2013-04-13 20:22:00,60.0,40.0,29.74,WSW,240,2.0,-999.0,48,-99.99,,,-99.99,,2013-04-14 01:22:00,
2013-04-13 20:32:00,60.0,40.0,29.74,WSW,240,2.0,-999.0,48,-99.99,,,-99.99,,2013-04-14 01:32:00,
2013-04-13 20:42:00,60.0,40.0,29.74,WSW,240,2.0,-999.0,48,-99.99,,,-99.99,,2013-04-14 01:42:00,
2013-04-13 20:53:00,58.0,40.0,29.73,WSW,250,0.0,-999.0,52,-99.99,,,-99.99,,2013-04-14 01:53:00,
2013-04-13 21:02:00,58.0,40.0,29.73,WSW,250,0.0,-999.0,52,-99.99,,,-99.99,,2013-04-14 02:02:00,
2013-04-13 21:12:00,56.0,39.0,29.74,West,260,0.0,-999.0,53,-99.99,,,-99.99,,2013-04-14 02:12:00,
2013-04-13 21:22:00,56.0,39.0,29.74,West,260,0.0,-999.0,53,-99.99,,,-99.99,,2013-04-14 02:22:00,
2013-04-13 21:32:00,56.0,39.0,29.74,West,260,0.0,-999.0,53,-99.99,,,-99.99,,2013-04-14 02:32:00,
2013-04-13 21:43:00,56.0,39.0,29.74,West,260,0.0,-999.0,53,-99.99,,,-99.99,,2013-04-14 02:43:00,
2013-04-13 21:53:00,55.0,39.0,29.74,West,260,0.0,-999.0,54,-99.99,,,-99.99,,2013-04-14 02:53:00,
2013-04-13 22:02:00,55.0,39.0,29.74,West,260,0.0,-999.0,54,-99.99,,,-99.99,,2013-04-14 03:02:00,
2013-04-13 22:12:00,55.0,39.0,29.74,West,260,0.0,-999.0,54,-99.99,,,-99.99,,2013-04-14 03:12:00,
2013-04-13 22:22:00,54.0,38.0,29.76,West,260,0.0,0.0,54,0.00,,,0.00,,2013-04-14 03:22:00,
2013-04-13 22:33:00,54.0,38.0,29.76,West,260,0.0,0.0,54,0.00,,,0.00,,2013-04-14 03:33:00,
2013-04-13 22:43:00,54.0,38.0,29.76,West,260,0.0,0.0,54,0.00,,,0.00,,2013-04-14 03:43:00,
2013-04-13 22:53:00,53.0,38.0,29.75,West,261,0.0,0.0,56,0.00,,,0.00,,2013-04-14 03:53:00,
2013-04-13 23:02:00,53.0,38.0,29.75,West,261,0.0,0.0,56,0.00,,,0.00,,2013-04-14 04:02:00,
2013-04-13 23:12:00,53.0,38.0,29.75,West,261,0.0,0.0,56,0.00,,,0.00,,2013-04-14 04:12:00,
2013-04-13 23:23:00,52.0,38.0,29.75,West,260,0.0,0.0,58,0.00,,,0.00,,2013-04-14 04:23:00,
2013-04-13 23:32:00,52.0,38.0,29.75,West,260,0.0,0.0,58,0.00,,,0.00,,2013-04-14 04:32:00,
2013-04-13 23:43:00,52.0,38.0,29.75,West,260,0.0,0.0,58,0.00,,,0.00,,2013-04-14 04:43:00,
2013-04-13 23:52:00,52.0,36.0,29.76,West,260,0.0,0.0,55,0.00,,,0.00,,2013-04-14 04:52:00,